Panama City Tyndall AFB, FL

2:33 AM CST on November 24, 2017 (GMT -0600)
Tyndall Air Force Base

Weather History for KPAM - May, 2012

Change the Weather History Date:

Wednesday, May 2, 2012

  Actual Average Record
Temperature  
Mean Temperature 76 °F -  
Max Temperature 84 °F 77 °F 85 °F (2017)
Min Temperature 67 °F 62 °F 51 °F (1999)
Cooling Degree Days 10    
Growing Degree Days 26 (Base 50)    
Moisture  
Dew Point 71 °F    
Average Humidity 80    
Maximum Humidity 100    
Minimum Humidity 62    
Precipitation  
Precipitation 0.00 in - - ()
Sea Level Pressure  
Sea Level Pressure 30.06 in    
Wind  
Wind Speed 11 mph (SE)    
Max Wind Speed 20 mph    
Max Gust Speed 24 mph    
Visibility 10 miles    
Events      
Averages and records for this station are not official NWS values.
T = Trace of Precipitation, MM = Missing Value Source: NWS Daily Summary

Daily Weather History Graph

Daily Weather History Graph

Search for Another Location

Airport or City:

Trip Planner

Search our weather history database for the weather conditions in past years. The results will help you decide how hot, cold, wet, or windy it might be!

Date:

Astronomy

May. 02, 2012 Rise Set
Actual Time 5:58 AM CDT 7:20 PM CDT
Civil Twilight 5:32 AM CDT 7:46 PM CDT
Nautical Twilight 5:02 AM CDT 8:16 PM CDT
Astronomical Twilight 4:30 AM CDT 8:48 PM CDT
Moon 3:46 PM CDT (5/2) 3:10 AM CDT (5/2)
Length of Visible Light 14h 13m
Length of Day
13h 22m
Waxing Gibbous, 83% of the Moon is Illuminated
May 2
Waxing Gibbous
May 5
Full
May 12
Last Quarter
May 20
New
May 28
First Quarter

Hourly Weather History & Observations

Time (CDT) Temp. Heat Index Dew Point Humidity Pressure Visibility Wind Dir Wind Speed Gust Speed Precip Events Conditions
12:55 AM 74.1 °F - 68.4 °F 82% 30.03 in 10.0 mi East 8.1 mph - N/A   Clear
1:55 AM 75.2 °F - 68.5 °F 80% 30.02 in 10.0 mi East 10.4 mph - N/A   Clear
2:55 AM 73.0 °F - 69.6 °F 89% 30.02 in 10.0 mi ESE 9.2 mph - N/A   Clear
3:10 AM 73.4 °F - 69.8 °F 88% 30.02 in 10.0 mi ESE 9.2 mph - N/A   Mostly Cloudy
3:38 AM 73.4 °F - 69.8 °F 88% 30.03 in 10.0 mi ESE 8.1 mph - N/A   Scattered Clouds
3:55 AM 72.3 °F - 70.7 °F 95% 30.02 in 10.0 mi SE 8.1 mph - N/A   Partly Cloudy
4:55 AM 71.4 °F - 70.9 °F 98% 30.03 in 10.0 mi ESE 6.9 mph - N/A   Clear
5:55 AM 71.6 °F - 71.2 °F 99% 30.04 in 10.0 mi Calm Calm - N/A   Partly Cloudy
6:55 AM 72.9 °F - 71.4 °F 95% 30.06 in 10.0 mi Calm Calm - N/A   Clear
7:55 AM 75.9 °F - 71.8 °F 87% 30.07 in 10.0 mi ESE 11.5 mph - N/A   Clear
8:10 AM 77.0 °F - 71.6 °F 83% 30.07 in 10.0 mi ESE 12.7 mph - N/A   Clear
8:55 AM 79.2 °F - 70.9 °F 76% 30.08 in 10.0 mi ESE 16.1 mph - N/A   Partly Cloudy
9:48 AM 80.6 °F 84.6 °F 71.6 °F 74% 30.09 in 10.0 mi SSE 15.0 mph - N/A   Mostly Cloudy
9:55 AM 80.8 °F 84.2 °F 70.3 °F 70% 30.09 in 10.0 mi SE 17.3 mph - N/A   Scattered Clouds
10:13 AM 80.6 °F 83.9 °F 69.8 °F 70% 30.10 in 10.0 mi SSE 16.1 mph - N/A   Scattered Clouds
10:55 AM 82.4 °F 87.2 °F 71.8 °F 70% 30.10 in 10.0 mi SSE 15.0 mph - N/A   Mostly Cloudy
10:58 AM 82.4 °F 87.2 °F 71.6 °F 70% 30.10 in 10.0 mi South 18.4 mph - N/A   Mostly Cloudy
11:31 AM 84.2 °F 89.6 °F 71.6 °F 66% 30.09 in 8.0 mi SSE 15.0 mph - N/A   Mostly Cloudy
11:47 AM 84.2 °F 88.4 °F 69.8 °F 62% 30.09 in 10.0 mi SSE 19.6 mph 23.0 mph N/A   Mostly Cloudy
11:51 AM 84.2 °F 89.6 °F 71.6 °F 66% 30.08 in 10.0 mi SSE 15.0 mph 23.0 mph N/A   Mostly Cloudy
11:55 AM 82.9 °F 87.7 °F 71.6 °F 68% 30.08 in 10.0 mi South 15.0 mph - N/A   Mostly Cloudy
12:17 PM 82.4 °F 87.2 °F 71.6 °F 70% 30.09 in 1.8 mi South 17.3 mph - N/A   Haze
12:20 PM 82.4 °F 87.2 °F 71.6 °F 70% 30.09 in 10.0 mi South 15.0 mph - N/A   Mostly Cloudy
12:25 PM 80.6 °F 84.6 °F 71.6 °F 74% 30.09 in 1.0 mi South 15.0 mph - N/A   Haze
12:55 PM 81.0 °F 85.8 °F 73.0 °F 77% 30.08 in 10.0 mi South 16.1 mph - N/A   Mostly Cloudy
1:55 PM 81.0 °F 85.8 °F 73.0 °F 77% 30.06 in 10.0 mi South 16.1 mph - N/A   Mostly Cloudy
2:55 PM 81.7 °F 86.9 °F 73.0 °F 75% 30.04 in 10.0 mi SSE 17.3 mph 24.2 mph N/A   Mostly Cloudy
3:55 PM 81.9 °F 86.4 °F 71.6 °F 71% 30.04 in 10.0 mi SSE 19.6 mph - N/A   Scattered Clouds
4:55 PM 80.4 °F 84.1 °F 71.1 °F 73% 30.04 in 10.0 mi South 16.1 mph - N/A   Mostly Cloudy
5:55 PM 79.7 °F - 70.7 °F 74% 30.03 in 10.0 mi SSE 13.8 mph - N/A   Scattered Clouds
6:55 PM 76.5 °F - 69.6 °F 79% 30.04 in 10.0 mi SSE 6.9 mph - N/A   Clear
7:55 PM 73.4 °F - 69.1 °F 86% 30.04 in 10.0 mi ESE 5.8 mph - N/A   Partly Cloudy
8:55 PM 72.1 °F - 68.9 °F 89% 30.06 in 10.0 mi Calm Calm - N/A   Scattered Clouds
9:55 PM 68.9 °F - 68.0 °F 97% 30.05 in 10.0 mi Calm Calm - N/A   Scattered Clouds
10:55 PM 67.6 °F - 67.3 °F 99% 30.06 in 10.0 mi Calm Calm - N/A   Clear
11:55 PM 67.6 °F - 67.6 °F 100% 30.06 in 10.0 mi Calm Calm - N/A   Mostly Cloudy